Regional Weather Roundup
Issued by NWS

Home | Current Version | Previous Version | Text Only | Print | Product List | Glossary Off
Versions: 1 2 3 4 5 6 7 8 9 10 11 12 13 14 15 16 17 18 19 20 21 22 23 24 25 26 27 28 29 30 31 32 33 34 35 36 37 38 39 40 41 42 43 44 45 46 47 48 49 50

000
ASUS43 KMKX 281710
RWRWI

WISCONSIN REGIONAL WEATHER ROUNDUP
NATIONAL WEATHER SERVICE MILWAUKEE/SULLIVAN WI
1100 AM CST SAT FEB 28 2015

NOTE: "FAIR" INDICATES FEW OR NO CLOUDS BELOW 12,000 FEET WITH NO
SIGNIFICANT WEATHER AND/OR OBSTRUCTIONS TO VISIBILITY.

WIZ001-002-006>008-014>016-023>028-281800-
NORTHWEST WISCONSIN

CITY           SKY/WX    TMP DP  RH WIND       PRES   REMARKS
SUPERIOR ARPT  MOSUNNY   16   4  59 SW8       30.47F WCI   5
ASHLAND        SUNNY     16  -1  47 S13       30.48F WCI   2
HAYWARD        FAIR      12  -1  56 S13       30.46F WCI  -3
SIREN          SUNNY     15   2  58 S9        30.48S WCI   3
CUMBERLAND     FAIR       9   3  78 S9        30.48F WCI  -5
RICE LAKE      FAIR      10   0  65 S10       30.52F WCI  -4
CHETEK         FAIR      10   0  62 SE5       30.52F WCI   2
LADYSMITH      SUNNY     10   1  67 S6        30.53F WCI   0
EAU CLAIRE     SUNNY     11  -1  58 S12       30.55F WCI  -3
MENOMONIE      SUNNY     11   0  61 S10       30.56F WCI  -3
NEW RICHMOND   SUNNY     12   1  62 S13       30.51S WCI  -3
OSCEOLA        SUNNY     13   2  62 S12       30.54S WCI  -1
$$

WIZ003>005-009-010-017-018-281800-
NORTH CENTRAL WISCONSIN

CITY           SKY/WX    TMP DP  RH WIND       PRES   REMARKS
MANITOWISH WTR SUNNY     11  -2  54 S9        30.44F WCI  -1
ARBOR VITAE    SUNNY     13   1  59 S10       30.45F WCI   0
WOODRUFF       SUNNY     13   1  59 S10       30.45F WCI   0
RHINELANDER    SUNNY     10  -2  58 SW8       30.48F WCI  -2
EAGLE RIVER    SUNNY     13  -3  50 SW7       30.45F WCI   2
LAND O LAKES   SUNNY     16  -1  47 SW6       30.44F WCI   7
PHILLIPS       SUNNY     10  -2  59 S8        30.47F WCI  -3
TOMAHAWK       SUNNY     13  -2  52 CALM      30.50S
MEDFORD        SUNNY      6  -1  73 S7        30.51S WCI  -6
MERRILL        SUNNY     11   0  61 SW7       30.53S WCI   0
$$

WIZ029-030-035-036-043>047-281800-
CENTRAL WISCONSIN

CITY           SKY/WX    TMP DP  RH WIND       PRES   REMARKS
WAUSAU         SUNNY      9   1  70 CALM      30.55S
MOSINEE        SUNNY     10   0  61 SW7       30.56F WCI   0
MARSHFIELD     SUNNY     10  -3  55 S8        30.54F WCI  -2
STEVENS POINT  SUNNY      9  -5  52 SW7       30.58F WCI  -2
WAUPACA        SUNNY     17  -3  42 S3        30.62F
WAUTOMA        SUNNY     14  -5  42 VRB3      30.63F
WISC RAPIDS    SUNNY     10  -5  50 S6        30.60F WCI   0
CAMP DOUGLAS   SUNNY     10  -2  56 S8        30.61F WCI  -1
$$

WIZ011>013-019>022-031-037>040-048>050-281800-
NORTHEAST WISCONSIN

CITY           SKY/WX    TMP DP  RH WIND       PRES   REMARKS
ANTIGO         SUNNY      9   0  68 SW6       30.51F WCI  -1
SHAWANO        SUNNY     15   1  55 SW3       30.62F
OCONTO         SUNNY     15   1  53 SW6       30.63S WCI   7
STURGEON BAY   SUNNY     12   0  57 W10       30.64S WCI  -1
GREEN BAY      SUNNY     13   1  59 S7        30.64F WCI   3
MANITOWOC      SUNNY     19   1  45 VRB5      30.66S WCI  12
APPLETON       MOSUNNY   12   0  57 SW7       30.63S WCI   2
CLINTONVILLE   SUNNY     12   1  62 SW7       30.61F WCI   2
OSHKOSH        SUNNY     12  -1  56 SW9       30.64S WCI   0
$$

WIZ032>034-041-042-053>061-281800-
SOUTHWEST WISCONSIN

CITY           SKY/WX    TMP DP  RH WIND       PRES   REMARKS
LA CROSSE      SUNNY      8  -3  61 S7        30.63F WCI  -3
SPARTA         SUNNY     12  -2  53 S5        30.62R WCI   4
VIROQUA        SUNNY      9  -2  61 S6        30.57S WCI  -1
BOSCOBEL       SUNNY     10  -3  55 CALM      30.66F
PRAIRIE DU CHI SUNNY      6  -7  57 CALM      30.65F
PLATTEVILLE    SUNNY      6   0  76 SE7       30.63S WCI  -6
$$

WIZ056-057-062-063-064-067-068-281800-
SOUTH CENTRAL WISCONSIN

CITY           SKY/WX    TMP DP  RH WIND       PRES   REMARKS
REEDSBURG      SUNNY      9  -2  60 S5        30.62F WCI   1
BARABOO/DELLS  SUNNY     10  -3  53 S3        30.61F
LONE ROCK      SUNNY     10  -4  53 CALM      30.65F
MINERAL POINT  SUNNY      9  -4  56 S6        30.61S WCI  -1
MADISON        MOSUNNY   10  -3  55 S12       30.65S WCI  -5
MIDDLETON      SUNNY     12  -5  46 S8        30.64F WCI   1
WATERTOWN      SUNNY     11  -2  56 S6        30.65F WCI   1
MONROE         SUNNY     10   0  61 S10       30.62F WCI  -3
JANESVILLE     SUNNY     12  -2  52 SW13      30.66F WCI  -3
$$

WIZ051-052-058>065-066-070>072-281800-
SOUTHEAST WISCONSIN

CITY           SKY/WX    TMP DP  RH WIND       PRES   REMARKS
MILWAUKEE      MOSUNNY   11  -4  51 SW10      30.69F WCI  -3
WAUKESHA       SUNNY     10  -4  52 SW6       30.67F WCI   1
MILWAUKEE/TIMM SUNNY     12  -6  44 SW7       30.68F WCI   2
RACINE         SUNNY     11  -3  53 SW7       30.71F WCI   0
BURLINGTON     SUNNY     12  -3  50 SW8       30.67F WCI   1
KENOSHA        SUNNY     12  -1  56 SW7       30.69F WCI   1
FOND DU LAC    SUNNY     13  -2  51 S7        30.65S WCI   3
SHEBOYGAN      SUNNY     14  -2  49 S8        30.65F WCI   3
WEST BEND      SUNNY     16  -4  41 S8        30.65S WCI   5
JUNEAU         SUNNY     10  -3  57 S7        30.65F WCI  -1
$$

LSZ147-162-281800-
LAKE SUPERIOR

STATION/POSITION TIME  TEMP    WIND        PRES    WAVE
                       AIR SEA DIR/SP/G            HT/PER
                 (UTC) (F)     (DEG/KT/KT) (MB)    (FT/S)
DEVILS ISLAND    1700   14     210/  3/  6 1033.6F
PORT WING        1600   12     210/ 11/ 15 1032.2S
SAXON HARBOR     1600   14     210/  3/ 12 1032.5F
$$

LMZ867-665-643>646-281800-
LAKE MICHIGAN

STATION/POSITION TIME  TEMP    WIND        PRES    WAVE
                       AIR SEA DIR/SP/G            HT/PER
                 (UTC) (F)     (DEG/KT/KT) (MB)    (FT/S)
NORTHPORT PIER   1600   11     260/  6/  9 1036.9S
SISTER BAY       1613   22     280/  9/ 10   N/A
KEWAUNEE LAKESHO 1612   13     240/  4/ 10 1036.8R
SHEBOYGAN LAKESH 1700   14     200/ 10/ 11 1040.2F
PORT WASHINGTON  1640   18     250/  3/ 11 1039.3F
MILWAUKEE LAKESH 1600   11     240/  9/ 12   N/A
KENOSHA   LAKESH 1700   14     200/  5/  7 1039.3F
$$

TC  - TEMPERATURE IN CELSIUS
VSB - VISIBILITY IN STATUTE MILES
WCI - WIND CHILL INDEX
HX  - HEAT INDEX




USA.gov is the U.S. government's official web portal to all federal, state and local government web resources and services.